WetterOnline ( https://www.wetteronline.de )

Wetter aktuell Pfälzer Wald

Aktuelles Wetter: Weinbiet/Pfalz (557m)

6-stündlich | Neueste Meldungen
Ortszeit Temperatur Wetter
So, 22.05. 20:00 17.2° C bewölkt
So, 22.05. 14:00 20.7° C leicht bewölkt
So, 22.05. 8:00 14.2° C leicht bewölkt
So, 22.05. 2:00 14.6° C wolkenlos
Sa, 21.05. 20:00 17.3° C wolkig
Sa, 21.05. 14:00 18.9° C bewölkt
Sa, 21.05. 8:00 8.8° C wolkig
Sa, 21.05. 2:00 11.5° C wolkenlos
Ortszeit Temperatur Wetter
So, 22.05. 20:00 17.2° C bewölkt
So, 22.05. 19:50 17.2° C bewölkt
So, 22.05. 19:40 16.8° C leichter Regen
So, 22.05. 19:30 18.0° C leichter Regen
So, 22.05. 19:20 18.0° C leichter Regen
So, 22.05. 19:10 18.2° C bedeckt
So, 22.05. 19:00 18.6° C bedeckt
So, 22.05. 18:30 19.0° C bedeckt
So, 22.05. 18:00 19.4° C bedeckt
So, 22.05. 17:30 19.8° C bedeckt
So, 22.05. 17:00 19.9° C bedeckt
Ortszeit Relative Feuchte Sichtweite
So, 22.05. 20:00 55% 50 km
So, 22.05. 14:00 43% 55 km
So, 22.05. 8:00 68% 60 km
So, 22.05. 2:00 58% 60 km
Sa, 21.05. 20:00 53% 55 km
Sa, 21.05. 14:00 53% 35 km
Sa, 21.05. 8:00 97% 18 km
Sa, 21.05. 2:00 87% 50 km
Ortszeit Relative Feuchte Sichtweite
So, 22.05. 20:00 55% 50 km
So, 22.05. 19:50 55% -
So, 22.05. 19:40 60% -
So, 22.05. 19:30 52% 45 km
So, 22.05. 19:20 52% -
So, 22.05. 19:10 50% -
So, 22.05. 19:00 48% 60 km
So, 22.05. 18:30 48% 65 km
So, 22.05. 18:00 48% 65 km
So, 22.05. 17:30 45% 45 km
So, 22.05. 17:00 44% 45 km
Ortszeit Niederschlagsmenge Niederschlagsart
So, 22.05. 20:00 0.1 l/m2 in 12 Std. Regen
So, 22.05. 14:00 0.0 l/m2 in 6 Std. -
So, 22.05. 8:00 0.0 l/m2 in 12 Std. -
So, 22.05. 2:00 0.0 l/m2 in 6 Std. -
Sa, 21.05. 20:00 0.0 l/m2 in 12 Std. -
Sa, 21.05. 14:00 0.0 l/m2 in 6 Std. -
Sa, 21.05. 8:00 3 l/m2 in 12 Std. -
Sa, 21.05. 2:00 3 l/m2 in 6 Std. Regen
Ortszeit Niederschlagsmenge Niederschlagsart
So, 22.05. 20:00 0.1 l/m2 in 1 Std. Regen
So, 22.05. 19:50 keine Meldung -
So, 22.05. 19:40 keine Meldung -
So, 22.05. 19:30 0.1 l/m2 in 1 Std. -
So, 22.05. 19:20 keine Meldung -
So, 22.05. 19:10 keine Meldung -
So, 22.05. 19:00 0.0 l/m2 in 1 Std. -
So, 22.05. 18:30 0.0 l/m2 in 1 Std. -
So, 22.05. 18:00 0.0 l/m2 in 1 Std. -
So, 22.05. 17:30 0.0 l/m2 in 1 Std. -
So, 22.05. 17:00 0.0 l/m2 in 1 Std. -
Ortszeit Stärke Spitze Richtung
km/h Bft. km/h Grad Sektor
So, 22.05. 20:00 9 2 33 40° NO
So, 22.05. 14:00 14 3 25 90° O
So, 22.05. 8:00 4 1 18 80° O
So, 22.05. 2:00 4 1 22 40° NO
Sa, 21.05. 20:00 15 3 43 250° W
Sa, 21.05. 14:00 24 4 50 250° W
Sa, 21.05. 8:00 26 4 48 270° W
Sa, 21.05. 2:00 37 5 91 280° W
Ortszeit Stärke Spitze Richtung
km/h Bft. km/h Grad Sektor
So, 22.05. 20:00 9 2 33 40° NO
So, 22.05. 19:50 9 2 - 40° NO
So, 22.05. 19:40 4 1 - 230° SW
So, 22.05. 19:30 18 3 32 50° NO
So, 22.05. 19:20 18 3 - 50° NO
So, 22.05. 19:10 18 3 - 40° NO
So, 22.05. 19:00 14 3 29 60° NO
So, 22.05. 18:30 13 3 17 70° O
So, 22.05. 18:00 13 3 19 80° O
So, 22.05. 17:30 11 2 15 70° O
So, 22.05. 17:00 7 2 17 80° O
Ortszeit Untergrenze Bedeckung Gattung
total tief tief mittel hoch
So, 22.05. 20:00 1050 m 8/8 6/8 - - -
So, 22.05. 14:00 8700 m 7/8 0/8 - - -
So, 22.05. 8:00 7800 m 8/8 0/8 - - -
So, 22.05. 2:00 - 0/8 0/8 - - -
Sa, 21.05. 20:00 5100 m 8/8 7/8 - - -
Sa, 21.05. 14:00 1080 m 7/8 7/8 - - -
Sa, 21.05. 8:00 60 m 7/8 5/8 - - -
Sa, 21.05. 2:00 - 0/8 0/8 - - -
Ortszeit Bedeckungsgrad in Achtel und Wolkenuntergrenze
So, 22.05. 20:00 1(1050m) 6(2700m) 8(3300m)
So, 22.05. 19:50 1(1050m) 6(2700m) 8(3300m)
So, 22.05. 19:40 8
So, 22.05. 19:30 1(1500m) 7(2400m) 8(3000m)
So, 22.05. 19:20 1(1500m) 7(2400m) 8(3000m)
So, 22.05. 19:10 8
So, 22.05. 19:00 6(3000m) 8(3600m)
So, 22.05. 18:30 5(3600m) 8(3900m)
So, 22.05. 18:00 4(3300m) 8(4200m) 8(5100m)
So, 22.05. 17:30 8(3900m)
So, 22.05. 17:00 8(3900m)
Ortszeit Luftdruck NN (hPa) Tendenz (hPa in 3 Std.)
So, 22.05. 20:00 1011 - 1,9
So, 22.05. 14:00 1014 - 1,3
So, 22.05. 8:00 1017 - 0,6
So, 22.05. 2:00 1019 - 1,1
Sa, 21.05. 20:00 1019 - 1,3
Sa, 21.05. 14:00 1022 - 0,5
Sa, 21.05. 8:00 1024 + 0,5
Sa, 21.05. 2:00 1022 + 1,7
Ortszeit Luftdruck NN (hPa) Tendenz (hPa in 3 Std.)
So, 22.05. 20:00 1011 - 1,9
So, 22.05. 19:50 1011 keine Meldung
So, 22.05. 19:40 1012 keine Meldung
So, 22.05. 19:30 1011 - 2,1
So, 22.05. 19:20 1011 keine Meldung
So, 22.05. 19:10 1011 keine Meldung
So, 22.05. 19:00 1011 - 1,7
So, 22.05. 18:30 1012 - 1,2
So, 22.05. 18:00 1012 - 1,1
So, 22.05. 17:30 1012 - 0,8
So, 22.05. 17:00 1013 - 0,9
Ortszeit Schneehöhe (cm)
So, 22.05. 20:00 0
So, 22.05. 14:00 0
So, 22.05. 8:00 0
So, 22.05. 2:00 0
Sa, 21.05. 20:00 0
Sa, 21.05. 14:00 0
Sa, 21.05. 8:00 0
Sa, 21.05. 2:00 0
Ortszeit Schneehöhe (cm)
So, 22.05. 20:00 0
So, 22.05. 19:50 0
So, 22.05. 19:40 0
So, 22.05. 19:30 0
So, 22.05. 19:20 0
So, 22.05. 19:10 0
So, 22.05. 19:00 0
So, 22.05. 18:30 0
So, 22.05. 18:00 0
So, 22.05. 17:30 0
So, 22.05. 17:00 0
Link zu dieser Seite / Seite empfehlen

Das Wetter in ...